Waco, TX

7:20 PM CDT on May 22, 2017 (GMT -0500)
Waco Regional

Weather History for KACT - May, 2014

Change the Weather History Date:

Friday, May 9, 2014

  Actual Average Record
Temperature  
Mean Temperature 75 °F 73 °F  
Max Temperature 86 °F 83 °F 97 °F (2011)
Min Temperature 64 °F 62 °F 44 °F (1984)
Degree Days  
Heating Degree Days 0 0  
Month to date heating degree days 11 4  
Since 1 July heating degree days 2604 2140  
Cooling Degree Days 10 8  
Month to date cooling degree days 63 62  
Year to date cooling degree days 192 216  
Growing Degree Days 26 (Base 50)    
Moisture  
Dew Point 69 °F    
Average Humidity 79    
Maximum Humidity 97    
Minimum Humidity 61    
Precipitation  
Precipitation 0.02 in 0.14 in 3.30 in (1965)
Month to date precipitation 1.57 1.25  
Year to date precipitation 4.96 11.84  
Sea Level Pressure  
Sea Level Pressure 29.86 in    
Wind  
Wind Speed 10 mph (South)    
Max Wind Speed 21 mph    
Max Gust Speed 26 mph    
Visibility 6 miles    
Events Rain , Thunderstorm    
T = Trace of Precipitation, MM = Missing Value Source: NWS Daily Summary

Daily Weather History Graph

Daily Weather History Graph

Search for Another Location

Airport or City:

Trip Planner

Search our weather history database for the weather conditions in past years. The results will help you decide how hot, cold, wet, or windy it might be!

Date:

Astronomy

May. 09, 2014 Rise Set
Actual Time 6:36 AM CDT 8:14 PM CDT
Civil Twilight 6:10 AM CDT 8:40 PM CDT
Nautical Twilight 5:38 AM CDT 9:12 PM CDT
Astronomical Twilight 5:05 AM CDT 9:45 PM CDT
Moon 3:31 PM CDT (5/9) 3:19 AM CDT (5/9)
Length of Visible Light 14h 30m
Length of Day
13h 37m
Waxing Gibbous, 74% of the Moon is Illuminated
May 9
Waxing Gibbous
May 14
Full
May 21
Last Quarter
May 28
New
Jun 5
First Quarter

Hourly Weather History & Observations

Time (CDT) Temp. Heat Index Dew Point Humidity Pressure Visibility Wind Dir Wind Speed Gust Speed Precip Events Conditions
12:51 AM 70.0 °F - 68.0 °F 93% 29.85 in 9.0 mi SSE 10.4 mph - N/A   Scattered Clouds
1:02 AM 69.8 °F - 68.0 °F 94% 29.87 in 9.0 mi SSE 9.2 mph - N/A   Mostly Cloudy
1:14 AM 69.8 °F - 68.0 °F 94% 29.87 in 8.0 mi SSE 9.2 mph - N/A   Overcast
1:51 AM 71.1 °F - 69.1 °F 93% 29.85 in 7.0 mi SSE 9.2 mph - N/A   Overcast
2:34 AM 71.6 °F - 69.8 °F 94% 29.87 in 6.0 mi SSE 8.1 mph - N/A   Overcast
2:51 AM 72.0 °F - 70.0 °F 93% 29.85 in 6.0 mi SSE 8.1 mph - N/A   Overcast
3:10 AM 71.6 °F - 69.8 °F 94% 29.86 in 5.0 mi South 8.1 mph - N/A Thunderstorm Overcast
3:25 AM 71.6 °F - 69.8 °F 94% 29.86 in 5.0 mi SSE 5.8 mph - N/A   Overcast
3:35 AM 71.6 °F - 69.8 °F 94% 29.86 in 5.0 mi South 6.9 mph - N/A Thunderstorm Overcast
3:49 AM 71.6 °F - 69.8 °F 94% 29.85 in 4.0 mi South 6.9 mph - N/A Thunderstorm Overcast
3:51 AM 72.0 °F - 70.0 °F 93% 29.84 in 4.0 mi South 5.8 mph - N/A Thunderstorm Overcast
4:03 AM 71.6 °F - 69.8 °F 94% 29.86 in 4.0 mi South 5.8 mph - N/A Thunderstorm Overcast
4:14 AM 71.6 °F - 69.8 °F 94% 29.86 in 4.0 mi South 4.6 mph - N/A   Overcast
4:51 AM 72.0 °F - 70.0 °F 93% 29.85 in 5.0 mi South 5.8 mph - N/A   Overcast
5:51 AM 72.0 °F - 70.0 °F 93% 29.85 in 4.0 mi South 8.1 mph - 0.01 in   Overcast
6:07 AM 71.6 °F - 69.8 °F 94% 29.87 in 4.0 mi South 5.8 mph - 0.01 in Rain , Thunderstorm Light Rain
6:21 AM 71.6 °F - 69.8 °F 94% 29.88 in 4.0 mi SSE 9.2 mph - 0.01 in   Overcast
6:51 AM 73.0 °F - 71.1 °F 93% 29.87 in 4.0 mi South 9.2 mph - 0.01 in   Overcast
7:05 AM 73.4 °F - 71.6 °F 94% 29.89 in 2.5 mi South 9.2 mph - N/A   Overcast
7:51 AM 73.0 °F - 71.1 °F 93% 29.88 in 2.5 mi South 6.9 mph - N/A   Overcast
8:51 AM 75.0 °F - 72.0 °F 90% 29.90 in 2.0 mi South 8.1 mph - N/A   Mostly Cloudy
9:12 AM 77.0 °F - 71.6 °F 83% 29.91 in 4.0 mi SSW 5.8 mph - N/A   Haze
9:21 AM 77.0 °F - 71.6 °F 83% 29.91 in 4.0 mi South 6.9 mph - N/A   Haze
9:34 AM 77.0 °F - 71.6 °F 83% 29.91 in 5.0 mi South 6.9 mph - N/A   Haze
9:51 AM 77.0 °F - 71.1 °F 82% 29.91 in 5.0 mi South 5.8 mph - N/A   Haze
10:51 AM 80.1 °F 83.6 °F 71.1 °F 74% 29.90 in 6.0 mi SSW 5.8 mph - N/A   Haze
11:51 AM 81.0 °F 84.9 °F 71.1 °F 72% 29.90 in 6.0 mi SSW 5.8 mph - N/A   Haze
12:51 PM 82.9 °F 88.0 °F 72.0 °F 69% 29.89 in 6.0 mi South 11.5 mph - N/A   Haze
1:51 PM 86.0 °F 92.2 °F 72.0 °F 63% 29.86 in 7.0 mi South 11.5 mph - N/A   Clear
2:51 PM 84.0 °F 88.4 °F 70.0 °F 63% 29.84 in 7.0 mi South 9.2 mph - N/A   Clear
3:51 PM 82.9 °F 87.5 °F 71.1 °F 67% 29.80 in 7.0 mi South 11.5 mph - N/A   Scattered Clouds
4:51 PM 82.0 °F 86.3 °F 71.1 °F 69% 29.82 in 7.0 mi South 10.4 mph - N/A   Scattered Clouds
5:51 PM 82.0 °F 86.3 °F 71.1 °F 69% 29.81 in 7.0 mi South 8.1 mph - N/A   Partly Cloudy
6:22 PM 80.6 °F 84.6 °F 71.6 °F 74% 29.82 in 7.0 mi South 10.4 mph - N/A Thunderstorm Mostly Cloudy
6:37 PM 78.8 °F - 71.6 °F 78% 29.80 in 5.0 mi South 18.4 mph 24.2 mph N/A   Haze
6:51 PM 77.0 °F - 66.0 °F 69% 29.78 in 9.0 mi South 18.4 mph 26.5 mph N/A   Mostly Cloudy
7:51 PM 73.9 °F - 62.1 °F 66% 29.80 in 10.0 mi South 18.4 mph - N/A   Clear
8:51 PM 72.0 °F - 61.0 °F 68% 29.82 in 10.0 mi South 12.7 mph - N/A   Clear
9:51 PM 70.0 °F - 59.0 °F 68% 29.88 in 10.0 mi SE 11.5 mph - N/A   Clear
10:51 PM 69.1 °F - 60.1 °F 73% 29.90 in 10.0 mi South 11.5 mph - N/A   Clear
11:51 PM 66.9 °F - 60.1 °F 79% 29.87 in 10.0 mi SSW 9.2 mph - N/A   Clear